EHI
1 3 4 4 3 3 4 4 5 7 9 9 7 6 5 4 3 3 3 3 3 3 4 4 5 6 6 6 5 4 3 4 5 4 3 3 3 3 3 3 3 3 3
2 3 4 4 3 3 4 6 6 7 9 8 7 6 5 4 3 3 3 3 3 3 4 4 5 6 6 6 5 4 4 4 5 4 3 3 3 3 3 3 3 3 3
3 3 4 4 3 4 6 7 7 7 8 7 5 4 4 3 3 3 3 3 3 3 3 4 4 5 6 6 6 5 5 5 5 4 3 3 3 3 3 3 3 3 3
3 3 4 3 4 5 6 6 5 5 5 4 4 3 3 3 3 3 3 3 3 3 3 3 4 5 6 5 4 4 5 5 5 4 3 3 3 3 3 3 4 4 4
1 2 3 3 3 4 5 4 4 4 3 3 3 3 3 3 3 3 3 3 3 3 3 4 5 5 4 4 4 4 4 4 4 2 2 3 3 3 3 4 5 5 4
1 2 3 3 3 3 4 3 3 3 3 3 3 3 3 3 3 3 3 3 3 3 3 3 4 4 4 4 5 5 4 3 2 1 1 2 3 3 3 3 4 5 4
1 1 2 2 2 2 3 3 4 3 3 2 3 3 3 3 3 3 3 3 3 3 3 3 3 3 4 5 6 5 4 3 1 0 0 2 3 3 3 3 3 4 4
0 1 1 1 1 1 1 2 3 2 1 1 1 2 3 3 3 3 3 3 3 2 2 3 3 3 3 4 4 4 3 2 1 0 1 2 3 3 3 3 3 3 3
0 0 0 0 0 0 0 1 1 1 0 0 1 2 3 3 3 3 3 3 2 1 1 1 2 3 3 3 3 3 3 2 1 0 2 3 3 3 3 3 3 3 3
0 0 0 0 0 0 0 0 0 0 0 0 1 2 2 2 2 2 3 3 2 1 0 1 1 2 3 3 3 3 3 2 1 0 1 3 3 3 3 3 3 3 3
0 0 0 0 0 0 0 0 0 0 0 0 1 1 1 1 1 1 1 3 3 2 1 1 1 2 2 2 2 2 1 1 0 0 1 3 4 4 3 3 3 3 3
0 0 0 0 0 0 0 0 0 0 0 0 0 0 0 0 0 0 1 2 2 2 1 2 2 1 1 1 1 1 0 0 0 0 1 3 5 5 4 3 3 3 3
0 0 0 0 0 0 0 0 0 0 0 0 0 0 0 0 0 0 0 1 1 1 0 1 1 1 0 0 0 0 0 0 0 1 3 4 4 4 4 4 3 3 3
0 0 0 0 0 0 0 0 0 0 0 0 0 0 0 0 0 0 0 0 0 0 0 0 0 0 0 0 0 0 0 1 1 1 3 4 4 3 4 3 3 3 3
0 0 0 0 0 0 0 0 0 0 0 0 0 0 0 0 0 0 0 0 0 0 0 0 0 0 0 0 0 0 1 2 1 1 3 4 3 3 3 3 3 3 3
0 0 0 0 0 0 0 0 0 0 0 0 0 0 0 0 0 0 0 0 0 0 0 0 0 0 0 0 0 1 2 3 2 2 2 3 3 3 3 3 3 3 3
0 0 0 0 0 0 0 0 0 0 0 0 0 0 0 0 0 0 0 0 0 0 0 0 0 0 0 0 0 1 2 2 2 2 2 2 2 2 3 3 3 3 3
0 0 0 0 0 0 0 0 0 0 0 0 0 0 0 0 0 0 0 0 0 0 0 0 0 0 0 0 0 0 1 1 1 1 2 1 1 1 3 3 3 3 3
0 0 0 0 0 0 0 0 0 0 0 0 0 0 0 0 0 0 0 0 0 0 0 0 0 0 0 0 0 0 0 0 0 1 2 2 1 1 2 3 3 3 3
0 0 0 0 0 0 0 0 0 0 0 0 0 0 0 0 0 0 0 0 0 0 0 0 0 0 0 0 0 0 0 0 0 0 1 2 1 0 1 1 2 3 3
0 0 0 0 0 0 0 0 0 0 0 0 0 0 0 0 0 0 0 0 0 0 0 0 0 0 0 0 0 0 0 0 0 0 0 1 1 1 1 1 1 2 2
0 0 0 0 0 0 0 0 0 0 0 0 0 0 0 0 0 0 0 0 0 0 0 0 0 0 0 0 0 0 0 0 0 0 0 0 0 1 1 1 1 1 1
0 0 0 0 0 0 0 0 0 0 0 0 0 0 0 0 0 0 0 0 0 0 0 0 0 0 0 0 0 0 0 0 0 0 0 0 0 0 1 1 0 0 0
0 0 0 0 0 0 0 0 0 0 0 0 0 0 0 0 0 0 0 0 0 0 0 0 0 0 0 0 0 0 0 0 0 0 0 0 0 0 0 0 0 0 0
0 0 0 0 0 0 0 0 0 0 0 0 0 0 0 0 0 0 0 0 0 0 0 0 0 0 0 0 0 0 0 0 0 0 0 0 0 0 0 0 0 0 0
0 0 0 0 0 0 0 0 0 0 0 0 0 0 0 0 0 0 0 0 0 0 0 0 0 0 0 0 0 0 0 0 0 0 0 0 0 0 0 0 0 0 0
Wind_Speed
1 1 7 9 10 10 11 11 11 11 11 11 11 11 10 10 10 9 9 9 8 8 8 8 7 7 7 7 7 7 6 6 6 5 5 5 5 5 4 4 4 3 4
3 3 8 9 10 10 11 11 11 11 11 11 11 10 10 9 9 8 8 8 8 7 7 7 7 7 7 6 6 6 6 6 6 5 5 4 4 4 4 4 4 2 4
5 4 6 10 10 10 11 11 11 11 10 10 10 10 9 9 8 8 8 7 7 7 7 7 7 7 7 6 7 6 6 5 5 5 5 3 3 3 3 3 4 4 4
5 4 6 10 10 11 11 10 10 10 9 9 9 9 9 9 8 8 8 7 7 7 6 6 6 6 6 6 6 6 6 5 5 5 3 3 3 3 3 3 3 3 4
5 4 6 10 10 10 10 10 10 9 9 9 9 9 8 8 8 8 8 7 7 7 6 6 6 6 6 6 6 6 6 5 5 5 3 3 3 3 2 2 2 3 3
4 4 6 10 9 9 9 9 9 8 8 8 8 7 7 7 7 7 7 7 7 7 6 6 6 6 6 6 6 6 6 6 5 3 2 3 2 3 2 2 2 3 3
4 3 4 9 8 8 8 8 7 7 8 7 7 7 7 6 6 6 6 7 7 6 6 6 7 6 6 6 6 6 5 5 3 2 2 2 3 3 2 1 2 2 3
4 4 4 7 8 7 7 7 6 6 6 6 6 6 6 5 5 6 6 6 6 6 6 6 7 7 6 6 6 6 5 5 3 2 2 2 4 3 1 1 1 2 2
4 4 3 3 4 5 5 5 5 5 5 5 6 6 6 6 7 7 7 7 7 7 6 7 7 7 7 7 6 6 6 5 2 1 2 2 5 3 2 1 1 1 2
3 3 3 3 3 4 3 3 4 5 5 6 6 7 7 8 8 8 8 8 7 7 7 7 7 7 7 8 7 7 6 4 2 2 2 3 5 4 2 2 1 1 1
1 1 2 2 3 3 3 4 5 5 6 6 6 7 7 4 5 5 7 9 8 8 8 8 8 8 7 7 8 8 5 2 2 2 2 5 5 4 2 2 1 0 1
1 1 0 1 1 2 3 3 3 3 4 4 3 4 3 3 3 5 8 10 10 10 9 10 9 8 6 3 5 6 2 2 2 2 2 5 4 3 2 1 1 0 1
2 1 1 0 1 1 2 2 2 2 2 3 4 3 3 3 3 4 3 5 6 7 5 6 6 4 3 3 3 3 2 2 1 2 3 6 4 3 2 1 1 1 1
1 1 0 1 1 1 1 1 2 1 2 2 3 3 3 2 3 3 2 3 3 3 3 3 3 4 4 3 3 3 3 2 2 2 3 6 4 3 2 2 1 1 1
2 1 1 2 2 1 1 1 2 2 2 2 2 2 2 2 2 2 2 3 3 3 3 3 3 4 4 4 4 3 3 3 2 2 3 6 5 4 3 2 2 1 1
2 2 1 2 2 2 2 1 1 1 1 2 2 2 2 2 2 2 3 3 3 3 3 2 3 3 3 3 4 3 3 3 3 3 2 4 6 6 4 2 2 1 1
2 2 2 2 2 2 2 2 1 1 1 2 2 2 2 2 2 2 2 3 3 3 3 3 3 3 3 3 4 3 3 3 3 3 3 2 3 5 5 3 2 1 0
3 2 2 2 3 2 2 2 2 2 2 2 2 2 3 2 2 2 2 2 3 3 3 3 3 3 3 3 3 3 3 3 3 3 3 3 2 3 4 4 3 2 1
3 3 2 2 3 3 3 3 2 2 2 2 2 2 2 3 2 2 2 2 3 3 3 3 3 2 2 3 3 3 3 3 3 3 4 4 3 3 3 3 4 3 2
3 3 3 3 3 3 3 2 2 3 2 2 2 2 3 2 3 2 2 3 3 3 3 3 3 3 2 2 3 3 3 3 3 3 4 3 3 3 3 3 2 3 3
3 3 3 3 2 2 2 2 2 2 2 2 2 3 3 3 3 2 2 3 3 2 2 3 2 3 3 3 3 3 3 3 4 3 3 3 4 3 3 3 2 2 2
3 3 3 2 2 2 2 1 1 1 1 1 2 3 4 4 3 2 2 2 2 2 3 3 2 2 3 3 2 2 4 5 4 4 3 3 4 3 3 3 2 2 1
3 2 2 2 2 2 2 2 2 3 3 3 3 3 4 4 4 3 3 2 2 2 2 3 2 2 2 2 2 2 2 1 3 4 3 3 4 3 3 2 2 2 1
2 2 3 3 3 3 3 3 3 2 1 2 2 2 3 4 4 4 3 3 3 2 2 2 2 1 1 1 2 2 1 1 0 3 4 3 4 3 3 3 3 2 2
2 3 3 4 4 3 3 4 4 3 1 1 2 3 4 4 4 4 4 3 4 3 3 3 3 2 1 1 1 1 1 1 1 1 2 4 4 3 3 3 2 2 2
3 3 4 4 4 3 4 3 3 3 2 3 3 3 3 3 3 5 4 4 3 3 3 3 3 2 1 1 1 0 0 0 0 1 1 2 3 3 3 2 2 2 2
Wind_Direction
147 152 124 111 106 102 98 95 93 91 88 87 84 82 81 80 76 74 72 70 69 67 62 60 59 57 58 56 54 52 48 45 48 47 47 48 45 41 42 43 40 30 42
133 124 122 114 109 105 99 95 92 89 85 81 80 80 78 77 76 73 71 69 64 59 57 54 52 51 49 47 45 43 40 36 36 41 42 39 36 32 39 45 43 44 42
114 111 115 114 110 103 98 95 92 88 84 80 78 77 74 72 70 69 66 64 60 55 52 48 44 45 41 38 35 31 28 26 26 32 32 17 6 24 39 44 44 43 44
112 106 113 111 106 102 98 94 90 87 85 81 77 74 71 67 64 60 58 55 51 47 45 43 35 36 33 30 25 21 17 16 21 27 23 2 352 14 29 38 39 43 42
102 101 114 110 106 101 97 94 91 87 84 81 76 71 67 64 61 55 51 49 45 39 36 34 26 25 21 18 15 11 8 10 16 26 16 3 349 350 15 28 29 42 37
98 99 114 112 107 102 98 97 94 89 84 78 72 66 61 57 54 50 45 42 38 33 29 25 19 16 10 8 5 2 2 9 19 16 5 350 335 337 2 17 24 29 35
97 92 110 115 111 107 105 101 94 86 79 73 66 59 50 44 38 32 31 30 29 27 24 18 10 8 5 1 360 358 359 4 26 357 342 332 312 317 340 13 26 17 26
99 80 81 111 113 109 104 98 89 80 72 64 55 47 38 29 18 12 11 13 15 14 11 9 4 2 359 359 356 352 354 355 8 348 325 314 301 305 308 334 23 16 27
82 76 59 55 73 89 92 89 77 64 57 49 39 31 26 22 15 9 6 3 0 360 0 3 1 360 357 357 356 355 355 358 18 336 320 311 308 303 285 290 352 12 36
68 63 54 45 42 36 30 46 50 44 37 33 28 20 21 20 14 10 6 2 358 358 1 2 2 4 4 3 358 353 2 13 5 338 323 302 309 312 294 276 268 8 44
79 41 47 41 37 29 12 21 29 28 27 29 19 16 21 17 7 5 5 9 9 7 7 8 7 7 9 5 2 3 11 14 348 329 311 305 308 312 308 276 254 331 90
219 257 208 37 24 20 13 27 18 23 20 23 22 20 26 26 15 24 15 19 18 17 14 15 12 12 13 1 357 6 6 353 356 325 310 310 310 316 316 277 256 263 152
212 240 193 158 37 37 27 25 18 16 16 20 23 29 37 36 24 22 14 11 9 14 11 6 8 6 4 355 351 353 352 357 355 334 327 328 325 328 323 299 265 247 193
172 222 171 124 95 59 59 44 33 24 26 26 17 28 41 38 27 16 11 359 5 358 359 1 356 356 1 359 358 358 359 359 348 339 325 335 340 337 324 307 280 250 195
165 173 121 129 124 109 82 51 54 35 37 32 28 28 51 55 35 21 4 4 1 356 0 357 357 359 2 1 4 8 0 356 348 345 338 344 353 349 333 310 300 261 175
177 160 128 122 124 115 98 79 57 41 37 44 35 28 48 60 54 32 14 6 0 355 353 356 356 359 359 1 7 4 359 357 356 352 347 347 356 355 343 323 312 293 173
164 137 135 130 114 110 101 90 75 45 39 40 26 22 38 51 50 40 22 5 350 348 355 2 2 7 14 13 8 360 9 9 7 358 353 352 351 354 352 343 340 339 260
144 132 134 117 110 99 88 76 58 40 39 25 18 21 23 36 45 41 27 0 346 356 5 9 9 10 13 11 3 0 7 9 8 3 7 5 0 354 350 356 4 347 302
147 130 106 91 97 94 82 69 57 44 34 13 13 15 7 21 35 44 27 358 356 8 11 8 20 18 8 3 1 13 11 15 10 13 13 11 7 5 360 0 4 350 332
123 117 109 93 85 91 78 61 41 33 18 13 12 4 3 8 21 32 24 6 8 18 12 11 16 17 12 356 10 18 12 11 16 19 11 8 9 13 13 11 7 352 4
86 95 99 98 90 91 77 70 54 20 352 353 358 4 6 8 16 25 16 8 11 19 6 5 13 20 10 358 24 7 358 10 25 21 9 11 9 5 12 13 11 10 357
97 95 93 103 97 84 91 104 110 96 3 337 347 9 13 13 10 19 23 10 7 11 13 16 26 24 11 18 47 43 3 351 354 5 5 14 7 3 13 12 11 14 6
94 111 111 106 88 76 84 84 63 42 23 15 8 1 358 9 17 20 16 12 10 21 7 1 19 51 22 6 37 92 86 330 323 334 354 4 3 7 360 352 7 9 8
120 100 94 91 81 72 79 90 89 81 49 349 336 343 354 12 19 20 21 20 18 16 7 353 27 41 69 11 5 35 116 169 107 332 332 342 352 2 353 352 354 355 356
109 103 96 88 77 70 74 91 96 87 75 3 6 18 14 9 14 17 22 21 19 16 9 6 14 30 56 61 10 9 40 46 100 152 312 325 338 339 344 339 339 342 339
89 93 95 91 73 65 74 78 101 105 89 59 36 27 13 3 5 12 18 19 15 14 13 10 13 23 23 39 34 79 138 147 225 171 250 304 317 315 329 332 335 329 323